{"data":{"norad_id":54674,"epoch":"2026-05-25T00:26:45.477888Z","epoch_age_seconds":66707,"freshness":"FRESH","line1":"1 54674U 22166AJ  26145.01858192  .00000005  00000+0 -19912-4 0  9996","line2":"2 54674  87.9252 248.5872 0001896 102.6319 257.5027 13.21825794168389","mean_motion":13.21825794,"eccentricity":0.0001896,"inclination_deg":87.9252,"raan_deg":248.5872,"arg_perigee_deg":102.6319,"mean_anomaly_deg":257.5027,"bstar":-1.9912e-5,"rev_number":16838,"period_min":108.94022544699,"perigee_km":1176.3215564372,"apogee_km":1179.1867503626,"semimajor_km":7555.8911533999,"source":"CELESTRAK","updated_at":"2026-05-25T13:38:22.636909Z"}}